Location: Hurecourt
(47.9030°N, 6.0653°E)
Time: 08:41:43
(UTC+00:00)

CZ-2D R/B - Pass Details

Date: 14 July 2020
Orbit: 792 x 844 km, 98.7° (Epoch: 14 August)

Event Time Altitude Azimuth Distance (km) Brightness Sun altitude
Rises 00:38:46 0° 20° (NNE) 3,348 6.9 -19.3°
Reaches altitude 10° 00:41:16 10° 29° (NNE) 2,420 5.7 -19.2°
Maximum altitude 00:46:16 39° 97° (E) 1,223 3.1 -19.0°
Enters shadow 00:49:08 22° 152° (SSE) 1,719 3.4 -18.8°
